Total_Precipitation_Accumulation
0.33 0.37 0.46 0.53 0.69 0.77 0.78 0.83 0.89 1.05 1.17 1.27 1.43 1.33 1.22 1.22 1.22 1.18 1.18 1.17 1.25 1.31 1.34 1.28 1.30 1.30 1.23 1.13 1.06 0.98 0.92 0.84 0.77 0.83 0.91 0.88 0.72 0.61 0.56 0.53 0.50 0.43 0.38
0.34 0.40 0.47 0.52 0.66 0.78 0.79 0.83 0.91 1.04 1.10 1.17 1.28 1.34 1.26 1.25 1.29 1.24 1.22 1.19 1.19 1.24 1.35 1.37 1.29 1.25 1.22 1.17 1.08 1.02 0.97 0.94 0.86 0.84 0.91 0.96 0.95 0.76 0.58 0.51 0.49 0.48 0.46
0.36 0.43 0.49 0.53 0.63 0.76 0.80 0.82 0.90 1.03 1.09 1.22 1.33 1.44 1.54 1.48 1.46 1.43 1.31 1.21 1.18 1.17 1.22 1.34 1.35 1.28 1.23 1.18 1.10 0.99 0.91 0.90 0.86 0.77 0.89 0.97 0.86 0.71 0.59 0.51 0.43 0.42 0.44
0.35 0.42 0.48 0.55 0.60 0.67 0.79 0.85 0.95 1.03 1.08 1.26 1.38 1.36 1.47 1.45 1.31 1.22 1.27 1.24 1.18 1.16 1.13 1.17 1.25 1.29 1.24 1.16 1.08 1.02 0.97 0.95 0.93 0.82 0.73 0.74 0.72 0.75 0.66 0.55 0.50 0.45 0.43
0.29 0.35 0.41 0.46 0.54 0.60 0.72 0.84 0.99 1.10 1.12 1.18 1.35 1.39 1.32 1.30 1.31 1.30 1.26 1.29 1.29 1.22 1.14 1.12 1.14 1.17 1.16 1.10 1.06 1.06 1.03 0.99 0.96 0.90 0.79 0.70 0.61 0.60 0.70 0.60 0.51 0.54 0.51
0.27 0.32 0.33 0.39 0.50 0.60 0.70 0.79 0.94 1.07 1.13 1.14 1.24 1.38 1.33 1.26 1.25 1.31 1.33 1.30 1.34 1.31 1.20 1.10 1.09 1.06 1.03 1.02 0.99 0.98 0.96 0.93 0.89 0.85 0.82 0.81 0.77 0.65 0.66 0.63 0.50 0.49 0.50
0.30 0.31 0.30 0.35 0.44 0.52 0.62 0.72 0.86 0.97 1.04 1.07 1.13 1.19 1.29 1.25 1.16 1.12 1.19 1.27 1.32 1.28 1.22 1.15 1.08 1.03 0.97 0.95 0.94 0.95 0.93 0.87 0.83 0.80 0.76 0.73 0.70 0.65 0.69 0.78 0.69 0.59 0.53
0.26 0.26 0.28 0.34 0.39 0.42 0.47 0.58 0.70 0.88 1.02 1.06 1.09 1.11 1.17 1.26 1.16 1.08 1.07 1.15 1.21 1.16 1.10 1.13 1.07 1.00 0.98 0.97 0.96 0.94 0.91 0.92 0.86 0.76 0.73 0.72 0.67 0.68 0.76 0.87 0.94 0.87 0.64
0.26 0.24 0.27 0.31 0.35 0.42 0.43 0.51 0.59 0.75 0.96 1.10 1.10 1.09 1.11 1.17 1.16 1.07 1.04 1.06 1.10 1.13 1.12 1.13 1.14 1.06 1.05 1.06 1.03 0.99 0.92 0.91 0.91 0.84 0.77 0.77 0.72 0.71 0.72 0.77 0.90 1.13 1.01
0.29 0.28 0.26 0.28 0.30 0.37 0.43 0.46 0.54 0.62 0.77 0.98 1.13 1.12 1.07 1.06 1.11 1.12 1.09 1.06 1.05 1.09 1.11 1.17 1.21 1.16 1.10 1.14 1.16 1.07 0.97 0.96 0.93 0.94 0.91 0.81 0.75 0.76 0.79 0.83 0.84 0.91 1.06
0.30 0.29 0.27 0.26 0.29 0.34 0.45 0.50 0.54 0.59 0.66 0.77 0.96 1.07 1.07 1.07 1.11 1.13 1.08 1.10 1.08 1.07 1.05 1.07 1.18 1.24 1.18 1.11 1.17 1.16 1.08 1.05 0.97 0.94 0.96 0.88 0.81 0.88 0.91 0.95 0.94 0.89 0.93
0.27 0.28 0.25 0.27 0.30 0.37 0.44 0.53 0.58 0.58 0.61 0.68 0.80 0.94 1.02 1.05 1.09 1.07 1.10 1.15 1.17 1.12 1.02 1.00 1.08 1.19 1.20 1.14 1.14 1.14 1.09 1.07 1.04 0.98 0.98 0.97 0.91 0.92 0.95 1.02 1.01 0.93 0.87
0.25 0.28 0.28 0.29 0.32 0.38 0.43 0.51 0.58 0.56 0.58 0.69 0.77 0.89 0.99 1.00 1.03 0.98 1.01 1.16 1.29 1.26 1.11 1.03 1.06 1.16 1.23 1.16 1.10 1.14 1.13 1.04 0.97 0.96 0.99 1.00 1.00 0.93 0.92 1.02 1.06 1.00 0.95
0.22 0.27 0.32 0.32 0.31 0.35 0.41 0.45 0.53 0.57 0.60 0.65 0.75 0.84 0.95 0.94 0.92 0.91 0.90 1.03 1.20 1.30 1.24 1.10 1.06 1.13 1.26 1.28 1.25 1.27 1.22 1.13 0.98 0.86 0.87 0.96 1.08 1.08 1.08 1.11 1.09 1.12 1.17
0.21 0.25 0.30 0.33 0.36 0.38 0.41 0.43 0.48 0.57 0.63 0.62 0.71 0.75 0.84 0.94 0.91 0.87 0.89 0.97 1.09 1.17 1.21 1.20 1.12 1.13 1.34 1.56 1.71 1.60 1.32 1.14 1.04 0.87 0.79 0.88 1.12 1.31 1.47 1.51 1.39 1.39 1.52
0.21 0.22 0.26 0.30 0.37 0.41 0.44 0.48 0.50 0.54 0.61 0.61 0.67 0.70 0.79 0.91 0.95 0.88 0.89 0.99 1.08 1.12 1.15 1.17 1.15 1.13 1.30 1.67 1.88 1.55 1.20 1.06 1.00 0.94 0.83 0.87 1.11 1.26 1.39 1.53 1.49 1.52 1.71
0.20 0.20 0.25 0.31 0.35 0.40 0.41 0.48 0.52 0.55 0.61 0.62 0.64 0.70 0.79 0.84 0.92 0.92 0.94 1.02 1.11 1.12 1.11 1.09 1.10 1.07 1.11 1.46 1.68 1.44 1.12 1.00 0.95 0.92 0.88 0.90 1.00 1.12 1.15 1.26 1.30 1.30 1.47
0.25 0.23 0.27 0.32 0.33 0.37 0.36 0.41 0.46 0.58 0.66 0.66 0.64 0.70 0.77 0.81 0.90 0.95 0.97 1.07 1.15 1.11 1.09 1.09 1.06 1.03 1.07 1.34 1.57 1.39 1.11 1.02 0.97 0.95 0.90 0.84 0.88 1.01 1.16 1.24 1.21 1.13 1.19
0.30 0.29 0.30 0.32 0.31 0.34 0.35 0.35 0.39 0.51 0.63 0.69 0.64 0.65 0.74 0.80 0.88 0.94 1.00 1.07 1.15 1.10 1.06 1.05 1.06 1.01 1.01 1.26 1.59 1.46 1.14 1.06 1.00 0.99 0.93 0.83 0.79 0.99 1.16 1.13 1.11 1.04 1.08
0.27 0.31 0.30 0.29 0.31 0.33 0.36 0.34 0.38 0.45 0.57 0.66 0.59 0.61 0.67 0.72 0.81 0.89 0.98 1.05 1.06 1.05 1.05 1.01 1.00 0.97 0.93 1.12 1.51 1.60 1.19 1.08 1.01 1.00 0.96 1.02 1.00 1.10 1.12 1.02 1.09 1.19 1.07
0.27 0.27 0.29 0.30 0.33 0.35 0.36 0.37 0.39 0.43 0.51 0.62 0.57 0.60 0.64 0.68 0.76 0.86 0.90 0.97 1.02 1.00 1.04 1.02 0.98 0.97 0.95 1.01 1.27 1.60 1.31 1.13 1.02 1.02 1.02 0.97 1.11 1.13 1.10 1.07 1.05 1.23 1.15
0.29 0.29 0.28 0.30 0.31 0.33 0.36 0.38 0.41 0.43 0.48 0.57 0.58 0.63 0.68 0.71 0.74 0.80 0.81 0.85 0.96 1.00 1.02 1.03 1.05 1.03 1.00 1.03 1.23 1.43 1.37 1.23 1.03 0.99 0.92 0.91 1.08 1.13 1.15 1.11 1.15 1.21 1.19
0.31 0.31 0.31 0.29 0.29 0.31 0.37 0.43 0.45 0.45 0.50 0.55 0.56 0.63 0.72 0.75 0.76 0.75 0.78 0.84 0.91 0.99 1.02 1.01 1.02 1.04 1.01 1.06 1.27 1.26 1.26 1.24 1.12 1.09 1.13 1.10 1.19 1.22 1.13 1.10 1.13 1.09 1.03
0.34 0.34 0.35 0.32 0.31 0.31 0.35 0.44 0.49 0.48 0.52 0.54 0.54 0.60 0.66 0.73 0.77 0.72 0.71 0.75 0.84 0.96 0.98 0.97 0.93 0.92 0.96 1.11 1.24 1.16 1.13 1.20 1.24 1.25 1.24 1.25 1.27 1.23 1.17 1.11 1.00 0.90 0.92
0.37 0.37 0.37 0.36 0.34 0.33 0.37 0.44 0.48 0.48 0.51 0.49 0.49 0.53 0.56 0.68 0.78 0.78 0.73 0.72 0.74 0.90 1.00 0.96 0.92 0.95 1.05 1.21 1.31 1.23 1.19 1.22 1.29 1.36 1.40 1.34 1.29 1.27 1.16 1.00 0.88 0.84 0.88
0.40 0.38 0.38 0.38 0.38 0.38 0.41 0.45 0.47 0.47 0.47 0.47 0.47 0.49 0.52 0.60 0.71 0.76 0.78 0.86 0.84 0.87 0.88 0.87 0.93 0.91 1.05 1.16 1.17 1.19 1.22 1.30 1.37 1.41 1.39 1.21 1.05 1.00 0.96 0.89 0.83 0.81 0.80